(301170) = 2004 YX33 = 2008 YT70

Discovered at Mount Lemmon on 2008-12-29 by Mt. Lemmon Survey.

Orbit

Orbit type: Main Belt

Note: WebGL enabled browser required.

epoch2023-09-13.0
epoch JD2460200.5
perihelion date2020-02-28.83846
perihelion JD2458908.33846
argument of perihelion (°)87.08334
ascending node (°)318.56551
inclination (°)5.89975
eccentricity0.1530457
perihelion distance (AU)2.1007554
Tisserand w.r.t. Jupiter3.5
ΔV w.r.t. Earth (km/sec)9.2
semimajor axis (AU)2.4803646
mean anomaly (°)326.02234
mean daily motion (°/day)0.25230770
aphelion distance (AU)2.860
period (years)3.91
P-vector [x]0.69555324
P-vector [y]0.61159048
P-vector [z]0.37704480
Q-vector [x]-0.71524735
Q-vector [y]0.63910356
Q-vector [z]0.28278591
absolute magnitude16.82
phase slope0.15
uncertainty0
referenceMPEC 2024-A34
observations used446
oppositions11
arc length (days)6917
first opposition used2004
last opposition used2023
residual rms (arc-secs)0.68
perturbers coarse indicatorM-v
perturbers precise indicator003Ek
first observation date used2004-12-17.0
last observation date used2023-11-25.0
computer nameMPCLINUX
JD of orbit computation2456789.191822
perihelion JD uncertainty (days)2.0630E-04
argument of perihelion uncertainty (°)6.5836E-05
ascending node uncertainty (°)4.2412E-05
inclination uncertainty (°)9.5678E-06
eccentricity uncertainty 3.9535E-08
perihelion distance uncertainty (AU)9.9936E-08
Minimum Orbit Intersection Distances (in AU)
for orbit epoch: 2460200.5, reference: E2024-A34
Mercury1.78466
Venus1.38753
Earth1.11891
Mars0.61685
Jupiter2.54174
Saturn6.75787
Uranus15.7515
Neptune27.688

Observations

454 total observations over interval: 2004 12 17.32921 – 2023 11 25.302529
These data are available for download (format description).

Date (UT) J2000 RA J2000 Dec Magn Location Ref
2004 12 17.32921 07 26 58.97 +28 34 53.8 19.9   704 – Lincoln Laboratory ETS, New Mexico MPS 124151
2004 12 17.34233 07 26 58.27 +28 34 55.0 20.2   704 – Lincoln Laboratory ETS, New Mexico MPS 124151
2004 12 17.35576 07 26 57.54 +28 34 55.2 19.5   704 – Lincoln Laboratory ETS, New Mexico MPS 124151
2004 12 17.36963 07 26 56.56 +28 34 56.9 19.8   704 – Lincoln Laboratory ETS, New Mexico MPS 124151
2004 12 19.39834 07 25 01.56 +28 35 57.9 19.8 V 691 – Steward Observatory, Kitt Peak-Spacewatch MPS 124151
2004 12 19.42428 07 24 59.98 +28 35 58.7 19.8 V 691 – Steward Observatory, Kitt Peak-Spacewatch MPS 124151
2004 12 19.45051 07 24 58.39 +28 35 59.1 19.7 V 691 – Steward Observatory, Kitt Peak-Spacewatch MPS 124151
2005 01 07.28651 07 03 53.90 +28 28 30.4   704 – Lincoln Laboratory ETS, New Mexico MPS 407615
2005 01 07.30101 07 03 52.84 +28 28 30.4   704 – Lincoln Laboratory ETS, New Mexico MPS 407615
2005 01 07.31452 07 03 51.85 +28 28 28.9   704 – Lincoln Laboratory ETS, New Mexico MPS 407615
2005 01 07.32750 07 03 50.93 +28 28 27.9   704 – Lincoln Laboratory ETS, New Mexico MPS 407615
2005 01 19.10063 06 51 02.93 +28 04 34.4 19.9 V 691 – Steward Observatory, Kitt Peak-Spacewatch MPS 276577
2005 01 19.12690 06 51 01.35 +28 04 31.1 19.7 V 691 – Steward Observatory, Kitt Peak-Spacewatch MPS 276577
2005 01 19.15237 06 50 59.82 +28 04 26.9 19.8 V 691 – Steward Observatory, Kitt Peak-Spacewatch MPS 276577
2007 10 11.11126 20 24 30.45 -18 03 20.4 20.8 V G96 – Mt. Lemmon Survey MPS 276577
2007 10 11.11687 20 24 30.67 -18 03 18.9 20.5 V G96 – Mt. Lemmon Survey MPS 276577
2007 10 11.12247 20 24 30.85 -18 03 17.7 20.7 V G96 – Mt. Lemmon Survey MPS 276577
2007 10 11.12801 20 24 31.03 -18 03 16.7 20.9 V G96 – Mt. Lemmon Survey MPS 276577
2008 12 29.27492 08 24 41.94 +23 52 24.8 19.8 V G96 – Mt. Lemmon Survey MPS 271872
2008 12 29.28453 08 24 41.40 +23 52 25.3 19.9 V G96 – Mt. Lemmon Survey MPS 271872
2008 12 29.29183 08 24 41.04 +23 52 25.9 19.8 V G96 – Mt. Lemmon Survey MPS 271872
2008 12 29.29916 08 24 40.64 +23 52 26.4 19.9 V G96 – Mt. Lemmon Survey MPS 271872
2008 12 31.32424 08 22 51.17 +23 54 34.6   704 – Lincoln Laboratory ETS, New Mexico MPS 407615
2008 12 31.34996 08 22 49.74 +23 54 36.1   704 – Lincoln Laboratory ETS, New Mexico MPS 407615
2008 12 31.36267 08 22 48.99 +23 54 35.7   704 – Lincoln Laboratory ETS, New Mexico MPS 407615
2008 12 31.37538 08 22 48.23 +23 54 38.3   704 – Lincoln Laboratory ETS, New Mexico MPS 407615
2009 01 01.35792 08 21 52.90 +23 55 39.3 19.8 V 691 – Steward Observatory, Kitt Peak-Spacewatch MPS 271872
2009 01 01.37634 08 21 51.81 +23 55 40.4 19.8 V 691 – Steward Observatory, Kitt Peak-Spacewatch MPS 271872
2009 01 01.39194 08 21 50.88 +23 55 42.0 19.7 V 691 – Steward Observatory, Kitt Peak-Spacewatch MPS 271872
2009 01 03.35804 08 19 56.03 +23 57 42.9 19.6 V 691 – Steward Observatory, Kitt Peak-Spacewatch MPS 272830
2009 01 03.37367 08 19 55.06 +23 57 43.9 19.9 V 691 – Steward Observatory, Kitt Peak-Spacewatch MPS 272830
2009 01 03.38930 08 19 54.07 +23 57 44.4 19.7 V 691 – Steward Observatory, Kitt Peak-Spacewatch MPS 272830
2009 01 07.36699 08 15 47.24 +24 01 35.2 19.9 V 691 – Steward Observatory, Kitt Peak-Spacewatch MPS 272830
2009 01 07.38263 08 15 46.19 +24 01 36.0 19.9 V 691 – Steward Observatory, Kitt Peak-Spacewatch MPS 272830
2009 01 07.39826 08 15 45.14 +24 01 37.0 19.9 V 691 – Steward Observatory, Kitt Peak-Spacewatch MPS 272830
2009 01 17.26420 08 04 42.38 +24 07 59.1   704 – Lincoln Laboratory ETS, New Mexico MPS 407615
2009 01 17.27660 08 04 41.52 +24 07 58.0   704 – Lincoln Laboratory ETS, New Mexico MPS 407615
2009 01 17.28891 08 04 40.56 +24 07 59.4   704 – Lincoln Laboratory ETS, New Mexico MPS 407615
2009 01 17.30114 08 04 39.68 +24 07 59.1   704 – Lincoln Laboratory ETS, New Mexico MPS 407615
2009 01 17.31333 08 04 38.90 +24 07 58.9   704 – Lincoln Laboratory ETS, New Mexico MPS 407615
2009 01 28.13192 07 52 36.73 +24 06 40.8 19.8 V 703 – Catalina Sky Survey MPS 276577
2009 01 28.13742 07 52 36.40 +24 06 41.0 19.4 V 703 – Catalina Sky Survey MPS 276577
2009 01 28.14293 07 52 35.97 +24 06 40.1 20.0 V 703 – Catalina Sky Survey MPS 276577
2009 01 28.14830 07 52 35.65 +24 06 40.6 20.2 V 703 – Catalina Sky Survey MPS 276577
2009 04 19.17403 08 01 23.12 +20 07 02.7 21.2 V G96 – Mt. Lemmon Survey MPS 284485
2009 04 19.18094 08 01 23.62 +20 07 01.8 21.1 V G96 – Mt. Lemmon Survey MPS 284485
2009 04 19.18785 08 01 23.98 +20 06 59.0 21.4 V G96 – Mt. Lemmon Survey MPS 284485
2009 04 19.19470 08 01 24.49 +20 06 56.5 21.4 V G96 – Mt. Lemmon Survey MPS 284485
2011 07 31.48401 21 49 22.564 -13 21 39.38 20.3 g F51 – Pan-STARRS 1, Haleakala MPS 388023
2011 07 31.49782 21 49 21.842 -13 21 41.05 20.5 g F51 – Pan-STARRS 1, Haleakala MPS 388023
2011 07 31.51039 21 49 21.142 -13 21 42.00 19.8 r F51 – Pan-STARRS 1, Haleakala MPS 388023
2011 07 31.52139 21 49 20.558 -13 21 42.99 20.0 r F51 – Pan-STARRS 1, Haleakala MPS 388023
2011 08 03.48879 21 46 44.222 -13 26 27.08 20.3 g F51 – Pan-STARRS 1, Haleakala MPS 388409
2011 08 03.49956 21 46 43.596 -13 26 28.08 20.2 g F51 – Pan-STARRS 1, Haleakala MPS 388409
2011 09 21.16258 21 06 40.60 -14 22 29.4 20.2 V G96 – Mt. Lemmon Survey MPS 391216
2011 09 21.16785 21 06 40.50 -14 22 29.4 20.1 V G96 – Mt. Lemmon Survey MPS 391216
2011 09 21.17301 21 06 40.39 -14 22 28.9 19.9 V G96 – Mt. Lemmon Survey MPS 391216
2011 09 21.17829 21 06 40.28 -14 22 28.9 20.2 V G96 – Mt. Lemmon Survey MPS 391216
2011 10 23.15207 21 12 05.68 -13 08 29.5 20.4 V G96 – Mt. Lemmon Survey MPS 398115
2011 10 23.16152 21 12 06.01 -13 08 27.3 20.8 V G96 – Mt. Lemmon Survey MPS 398115
2011 10 23.17094 21 12 06.33 -13 08 25.0 20.5 V G96 – Mt. Lemmon Survey MPS 398115
2011 10 23.18037 21 12 06.69 -13 08 22.5 20.6 V G96 – Mt. Lemmon Survey MPS 398115
2012 09 27.610768 08 08 17.254 +24 01 12.20 21.2 w F51 – Pan-STARRS 1, Haleakala MPS 434053
2012 09 27.622368 08 08 18.425 +24 01 08.53 21.5 w F51 – Pan-STARRS 1, Haleakala MPS 434053
2012 09 27.627036 08 08 18.918 +24 01 07.00 21.3 w F51 – Pan-STARRS 1, Haleakala MPS 434053
2013 01 13.10873 09 13 42.24 +18 17 55.1 20.0 R J04 – ESA Optical Ground Station, Tenerife MPS 452203
2013 01 13.12030 09 13 41.59 +18 17 56.8 19.4 R J04 – ESA Optical Ground Station, Tenerife MPS 452203
2013 01 13.13188 09 13 40.92 +18 17 57.8 19.0 R J04 – ESA Optical Ground Station, Tenerife MPS 452203
2013 01 13.14345 09 13 40.29 +18 17 59.0 19.7 R J04 – ESA Optical Ground Station, Tenerife MPS 452203
2013 01 16.35141 09 10 39.28 +18 23 13.0 19.9 V 703 – Catalina Sky Survey MPS 452203
2013 01 16.35749 09 10 38.96 +18 23 12.8 19.7 V 703 – Catalina Sky Survey MPS 452203
2013 01 16.36360 09 10 38.53 +18 23 13.7 19.9 V 703 – Catalina Sky Survey MPS 452203
2013 01 16.36972 09 10 38.24 +18 23 14.1 20.0 V 703 – Catalina Sky Survey MPS 452203
2013 01 19.29643 09 07 43.02 +18 28 16.0 20.6 V 691 – Steward Observatory, Kitt Peak-Spacewatch MPS 453148
2013 01 19.31412 09 07 41.87 +18 28 18.1 20.2 V 691 – Steward Observatory, Kitt Peak-Spacewatch MPS 453148
2013 01 19.33180 09 07 40.76 +18 28 19.6 20.3 V 691 – Steward Observatory, Kitt Peak-Spacewatch MPS 453148
2013 01 19.36133 09 07 38.89 +18 28 22.7 19.9 V G96 – Mt. Lemmon Survey MPS 453148
2013 01 19.36719 09 07 38.53 +18 28 23.3 19.8 V G96 – Mt. Lemmon Survey MPS 453148
2013 01 19.37315 09 07 38.13 +18 28 23.7 19.9 V G96 – Mt. Lemmon Survey MPS 453148
2013 01 19.37913 09 07 37.74 +18 28 24.5 19.9 V G96 – Mt. Lemmon Survey MPS 453148
2013 01 23.53690 09 03 15.791 +18 35 43.82 19.5 r F51 – Pan-STARRS 1, Haleakala MPS 453148
2013 01 23.54870 09 03 15.002 +18 35 44.96 19.7 r F51 – Pan-STARRS 1, Haleakala MPS 453148
2013 02 01.32561 08 53 39.40 +18 50 11.9 19.7 V G96 – Mt. Lemmon Survey MPS 453618
2013 02 01.33272 08 53 38.90 +18 50 12.8 19.8 V G96 – Mt. Lemmon Survey MPS 453618
2013 02 01.33973 08 53 38.43 +18 50 13.9 19.7 V G96 – Mt. Lemmon Survey MPS 453618
2013 02 01.34687 08 53 37.93 +18 50 13.9 19.6 V G96 – Mt. Lemmon Survey MPS 453618
2013 02 07.24417 08 47 17.16 +18 58 03.2 19.2 V 703 – Catalina Sky Survey MPS 456162
2013 02 07.24931 08 47 16.83 +18 58 04.4 19.9 V 703 – Catalina Sky Survey MPS 456162
